SCP
0 0 0 0 0 0 0 0 0 0 0 0 0 0 0 0 0 0 0 0 0 0 0 0 0 0 0 0 0 0 -0 -0 -0 -0 -0 0 0 0 0 0 0 0 0 0 0 0 0 0 0 0 0 0 0 0
0 0 0 0 0 0 0 0 0 0 0 0 0 0 0 0 0 0 0 0 0 0 0 0 0 0 0 0 0 0 0 0 0 0 0 0 -0 0 0 0 0 0 0 1 0 0 0 0 0 0 0 0 0 0
0 0 0 0 0 0 0 0 0 0 0 0 0 0 0 0 0 0 0 0 0 0 0 0 0 0 0 0 -0 0 0 0 0 0 -0 -0 -0 0 0 0 0 0 0 0 0 0 0 0 0 0 0 0 0 0
0 0 0 0 0 0 0 0 0 0 0 0 0 0 0 0 0 0 0 0 0 0 0 -0 0 -0 0 0 -0 0 -0 0 0 0 0 -0 -0 -0 -0 0 0 0 0 0 0 0 0 0 0 0 0 0 0 0
0 0 0 0 0 0 0 0 0 0 0 0 0 0 0 0 0 0 0 0 0 0 0 -0 0 0 -0 0 0 0 0 -0 0 0 0 -0 -0 -0 -0 -0 0 0 0 0 0 0 0 0 0 0 0 0 0 0
0 0 0 0 0 0 0 0 0 0 0 0 0 0 0 0 0 0 0 0 0 0 0 -0 -0 -0 -0 -0 -0 -0 0 0 0 0 0 0 0 0 -0 0 0 0 0 0 0 0 0 0 0 0 0 0 0 0
0 0 0 0 0 0 0 0 0 0 0 -0 0 0 0 0 0 0 0 0 0 0 0 -0 0 0 -0 -0 0 -0 0 0 0 0 0 0 0 -0 0 0 0 0 0 0 0 0 0 0 0 0 0 0 0 0
0 0 0 0 0 0 0 0 0 0 0 -0 0 0 0 0 0 0 -0 -0 -0 0 -0 -0 -0 0 -0 -0 0 0 0 0 0 0 0 0 0 0 -0 -0 -0 0 0 -0 0 0 0 0 0 0 0 0 0 0
0 0 0 0 0 0 0 0 0 0 0 0 0 0 0 0 0 0 -0 0 -0 -0 -0 0 -0 0 -0 -0 -0 0 0 0 0 0 0 0 0 0 -0 -0 -0 -0 0 0 0 -0 0 0 0 0 0 0 0 0
0 0 0 0 0 0 0 0 0 -0 -0 -0 0 0 0 0 0 -0 -0 -0 -0 0 0 -0 -0 0 -0 -0 -0 0 0 0 0 0 0 0 0 0 -0 -0 0 0 -0 0 0 0 0 0 0 0 0 0 0 0
0 0 0 0 0 -0 0 0 0 -0 0 0 0 -0 0 -0 0 -0 -0 0 0 0 -0 0 -0 0 -0 -0 0 -0 0 0 0 0 0 0 0 0 -0 0 0 0 -0 0 0 0 0 0 0 0 0 0 0 0
0 0 0 0 0 0 0 0 0 0 -0 0 0 -0 0 -0 -0 0 0 -0 0 0 0 -0 0 0 -0 0 0 0 0 0 0 0 0 0 0 -0 -0 0 0 0 -0 0 0 0 0 0 0 0 0 0 0 0
0 0 0 0 -0 -0 0 0 0 0 -0 0 0 0 0 0 0 0 0 0 0 0 0 0 -0 0 -0 -0 -0 -0 -0 -0 -0 0 0 0 0 0 0 0 0 0 0 0 0 0 0 0 0 0 0 0 0 0
0 0 0 -0 -0 -0 -0 -0 -0 0 0 0 0 0 0 0 0 0 0 0 0 0 -0 -0 0 0 -0 -0 0 0 0 0 -0 0 0 0 0 0 0 0 0 0 0 0 0 0 0 0 0 0 0 0 0 0
-0 -0 -0 -0 -0 -0 -0 -0 -0 0 -0 0 0 0 0 0 0 0 0 0 -0 -0 0 0 0 0 0 0 -0 0 -0 -0 0 -0 -0 -0 0 0 0 0 0 0 0 0 0 0 0 0 0 0 0 0 0 0
-0 -0 0 -0 -0 -0 -0 -0 0 0 0 0 0 0 0 0 0 -0 -0 -0 -0 -0 -0 0 0 0 -0 0 0 0 0 0 0 -0 -0 0 -0 -0 0 0 0 0 0 0 0 0 0 0 0 0 0 0 0 0
-0 0 -0 -0 -0 -0 -0 0 0 0 0 0 0 0 0 0 -0 0 0 0 0 0 0 0 0 0 0 0 0 0 0 0 -0 -0 -0 -0 -0 -0 -0 0 0 0 0 0 0 0 0 0 0 -0 0 0 0 0
0 0 -0 -0 0 -0 0 0 0 0 0 0 0 0 0 -0 -0 -0 0 0 0 0 0 0 0 0 0 -0 -0 0 0 -0 -0 0 0 0 -0 -0 -0 -0 -0 -0 -0 0 0 0 -0 -0 -0 0 0 0 0 0
-0 0 0 -0 -0 0 -0 -0 0 0 0 0 -0 -0 -0 0 -0 -0 -0 0 -0 -0 0 -0 0 0 -0 -0 -0 -0 0 0 0 0 0 -0 -0 -0 -0 -0 -0 -0 0 0 -0 0 0 0 0 0 0 0 0 0
-0 0 0 -0 -0 0 0 -0 0 0 0 0 0 -0 0 0 0 -0 0 0 -0 -0 -0 -0 -0 0 0 0 0 0 0 -0 0 0 -0 0 0 0 0 -0 0 -0 0 0 0 0 0 0 0 0 0 0 0 0
0 -0 -0 -0 -0 -0 -0 0 0 0 0 0 0 0 -0 0 -0 -0 0 0 0 -0 0 -0 -0 0 -0 -0 0 0 0 -0 0 0 0 -0 0 -0 -0 0 0 -0 0 0 -0 -0 0 0 0 0 0 0 0 0
-0 0 0 -0 -0 -0 -0 0 0 -0 0 0 -0 0 -0 -0 -0 0 -0 -0 0 -0 -0 0 0 0 -0 -0 0 0 0 -0 0 0 -0 -0 -0 -0 -0 -0 -0 -0 -0 -0 -0 0 0 0 -0 -0 0 0 0 0
-0 -0 0 0 -0 -0 -0 0 0 -0 0 0 0 -0 0 -0 -0 0 0 0 0 0 0 0 0 0 0 0 0 -0 0 0 0 0 0 -0 -0 -0 -0 0 -0 -0 -0 -0 -0 -0 -0 0 0 0 0 0 0 0
0 0 0 0 0 -0 -0 -0 0 0 0 0 0 0 0 0 0 0 0 0 0 0 0 0 0 0 -0 -0 -0 -0 -0 0 0 -0 -0 0 -0 -0 -0 -0 -0 -0 -0 -0 0 0 0 0 0 0 0 0 -0 -0
0 0 0 0 -0 -0 -0 -0 -0 -0 -0 0 0 0 0 0 0 0 0 0 0 0 0 0 0 0 0 0 0 0 0 -0 0 -0 -0 -0 0 0 0 0 -0 -0 -0 -0 0 0 0 -0 -0 -0 0 0 -0 -0
0 0 0 0 0 0 0 -0 -0 -0 0 -0 -0 0 0 0 -0 0 0 0 0 0 0 0 0 0 0 0 0 0 0 -0 0 -0 0 0 0 0 0 -0 -0 -0 -0 0 -0 -0 -0 -0 -0 -0 -0 0 0 0
0 0 0 0 0 -0 0 0 -0 -0 -0 0 -0 -0 -0 -0 0 0 0 0 0 0 0 0 0 0 0 0 0 0 0 0 0 -0 -0 -0 -0 -0 0 0 -0 0 0 0 0 0 0 0 0 0 0 0 0 0
0 0 0 0 0 -0 -0 0 0 0 0 0 0 0 0 -0 -0 0 0 0 0 0 0 0 0 0 0 0 0 0 -0 -0 -0 0 -0 -0 -0 -0 0 0 0 0 -0 -0 0 -0 0 0 0 0 0 0 0 0
0 0 0 0 0 -0 0 0 -0 -0 -0 0 0 0 0 0 0 0 0 -0 -0 0 -0 -0 -0 -0 -0 -0 -0 -0 -0 -0 -0 -0 -0 -0 0 -0 0 0 -0 0 0 -0 -0 -0 0 0 0 0 0 0 0 0
0 0 0 0 0 0 -0 -0 -0 -0 0 -0 -0 0 0 0 0 0 0 0 0 -0 -0 -0 -0 -0 -0 -0 -0 -0 -0 -0 -0 -0 0 -0 -0 -0 -0 0 0 0 0 0 0 0 0 0 0 0 -0 -0 0 0
-0 0 0 -0 -0 -0 -0 -0 -0 -0 -0 -0 -0 0 0 0 0 0 0 0 0 -0 0 0 0 0 0 -0 -0 -0 -0 -0 -0 -0 -0 -0 -0 -0 -0 -0 0 0 0 0 0 -0 0 -0 -0 -0 -0 -0 0 -0
0 0 -0 -0 -0 -0 -0 -0 -0 -0 -0 -0 -0 0 0 0 0 0 0 0 0 0 0 0 0 0 0 0 0 0 -0 0 0 0 0 0 0 0 0 0 0 0 0 0 0 0 -0 0 0 0 0 0 -0 -0
0 -0 0 0 0 0 0 -0 0 0 -0 -0 -0 0 0 0 0 0 0 0 0 0 0 0 0 0 0 0 0 -0 -0 0 0 0 0 0 0 0 0 0 0 0 0 0 0 0 0 0 0 0 0 0 -0 -0
Wind_Speed_500mb
46 49 54 58 63 65 65 67 70 72 72 71 68 66 66 63 57 57 70 53 65 54 91 70 72 74 62 50 28 48 23 21 14 9 7 7 10 21 21 20 14 29 28 23 27 28 37 15 14 17 2 11 6 11
49 54 58 62 63 67 67 70 70 73 75 73 70 70 70 68 65 62 78 65 60 69 62 56 55 56 60 70 70 62 41 46 7 3 2 5 8 14 27 29 20 14 15 14 26 14 12 13 21 36 16 8 13 15
52 57 59 59 65 65 67 70 76 78 76 74 71 70 69 69 68 62 74 69 59 55 60 75 69 80 71 78 69 58 59 52 50 36 6 2 10 3 9 22 27 16 24 15 19 24 22 36 31 21 17 27 25 25
54 57 58 60 66 63 69 73 79 76 70 72 72 70 67 65 62 59 63 63 58 26 12 57 58 68 58 61 69 82 83 70 64 34 12 7 9 19 9 12 6 21 6 9 16 16 23 20 32 20 33 36 32 25
55 55 56 62 61 63 70 72 77 68 67 68 65 58 55 50 50 47 51 58 54 51 10 31 61 64 47 42 44 54 61 66 60 35 11 7 10 12 19 21 22 25 24 17 9 28 22 22 31 21 13 17 26 16
53 52 55 59 57 62 65 68 72 63 60 57 51 41 34 28 28 27 19 20 50 55 18 8 29 45 48 57 60 57 45 49 46 34 14 16 22 16 9 20 27 37 43 29 21 36 27 18 15 17 15 15 17 14
47 51 55 56 55 58 60 65 67 55 52 52 44 34 27 21 27 27 3 11 1 7 12 11 15 27 23 39 57 49 53 40 30 22 12 12 17 21 10 33 39 57 60 43 41 42 43 36 28 27 22 17 16 13
43 50 55 54 49 47 54 58 60 52 50 34 33 23 18 3 7 24 28 31 32 16 9 7 12 28 5 6 13 43 42 20 17 13 9 9 11 17 14 26 47 57 64 60 59 41 47 41 31 38 24 26 18 21
43 49 52 49 42 43 48 52 54 46 45 34 20 15 15 7 8 11 15 18 22 24 8 11 15 20 9 18 23 11 12 7 16 9 9 13 12 22 19 31 39 36 40 45 47 54 32 34 35 30 29 27 25 24
43 47 49 45 39 38 44 46 45 45 41 35 22 9 8 7 18 22 9 9 18 16 18 15 39 26 30 4 7 6 8 6 8 15 20 13 28 54 61 59 53 41 36 35 42 44 47 32 32 28 41 31 27 24
41 44 45 40 35 36 40 44 44 42 30 27 15 9 23 29 13 7 6 7 12 8 17 26 39 25 33 13 9 9 4 5 8 12 15 13 21 32 66 77 97 83 66 51 37 33 47 38 46 37 32 28 27 18
43 41 40 35 34 35 38 41 42 32 29 32 32 41 19 7 6 7 8 8 11 8 16 11 17 15 11 10 7 8 6 6 12 14 8 9 23 50 50 61 76 67 62 50 30 20 25 33 40 39 40 33 26 24
40 38 36 35 36 39 38 40 38 37 39 21 7 7 8 7 8 9 8 8 8 5 11 11 7 4 7 6 5 5 9 12 15 6 8 15 21 7 5 11 8 49 55 46 27 20 24 27 37 36 43 38 31 24
40 38 37 39 40 38 37 45 36 34 17 6 6 9 9 10 10 12 6 12 20 15 21 15 11 6 8 7 5 7 8 7 8 8 12 1 18 19 8 9 9 37 52 48 28 25 29 31 45 47 45 35 32 25
38 42 41 31 23 30 45 34 29 19 9 7 8 9 9 13 33 28 28 16 24 26 15 11 12 9 7 8 10 10 8 9 9 8 10 16 30 10 11 17 18 29 52 51 28 31 28 58 53 47 38 32 28 18
40 41 19 21 35 42 40 32 21 14 7 7 11 16 34 28 28 31 28 27 20 28 23 16 6 6 10 6 6 8 6 4 8 7 33 29 34 23 31 22 29 46 54 48 28 49 57 58 50 45 37 31 25 15
33 21 34 44 46 42 32 27 15 7 8 8 15 23 31 34 29 23 24 22 20 13 5 3 3 4 10 7 4 7 9 13 21 39 26 23 33 37 39 41 46 43 50 51 53 52 51 49 44 38 36 31 24 13
31 30 41 42 45 24 24 10 7 9 13 23 17 31 26 30 34 30 18 15 6 9 10 6 11 7 6 7 10 6 18 41 49 38 19 28 37 38 45 53 61 63 59 55 47 40 38 38 33 35 35 29 25 18
32 37 29 23 16 9 7 8 10 10 21 28 35 38 32 24 32 30 23 15 12 13 13 8 9 4 4 2 14 35 39 42 45 48 19 39 45 43 46 47 48 48 46 44 38 33 30 33 34 31 32 24 16 11
27 24 14 18 9 7 8 9 11 12 14 16 33 31 25 25 18 15 13 10 11 6 6 5 7 15 21 33 32 34 34 31 36 41 28 34 36 40 43 43 42 43 39 35 32 32 38 30 29 34 26 21 11 11
24 14 19 13 10 14 10 10 12 18 24 29 33 29 20 18 18 14 17 21 6 6 8 19 37 41 36 37 32 27 20 17 8 21 17 21 31 40 40 37 38 37 36 31 32 33 30 31 24 24 25 18 13 16
15 18 19 15 8 8 13 18 16 24 19 29 36 22 6 5 10 19 14 16 10 9 22 35 43 46 43 31 13 7 8 7 3 7 20 16 24 32 28 32 32 27 26 31 25 27 27 26 26 20 15 16 16 12
17 16 11 10 9 9 16 14 10 10 7 11 23 6 6 4 6 12 7 13 8 27 36 39 38 16 12 8 7 4 4 7 14 18 14 14 19 22 29 20 15 26 28 28 25 24 25 24 22 15 18 17 12 15
14 8 8 8 14 10 10 9 17 11 10 7 7 5 5 8 6 6 4 10 32 39 43 48 51 43 27 28 21 21 24 18 14 17 15 18 17 12 17 19 16 17 21 21 24 26 26 21 14 17 15 13 16 18
8 10 10 13 13 10 9 8 13 5 6 9 7 1 3 2 2 3 4 20 46 47 47 46 45 39 35 31 31 26 30 28 17 19 18 18 22 22 24 19 16 13 13 22 26 22 19 17 20 17 13 14 18 22
10 12 12 7 4 5 5 7 7 10 8 5 4 8 4 3 7 7 5 26 34 42 39 43 41 37 29 23 19 22 35 29 12 18 22 22 25 25 22 24 22 18 16 20 23 18 13 18 17 14 17 17 22 25
9 9 8 10 4 1 5 6 9 5 4 6 7 9 7 6 7 6 22 30 38 32 25 27 28 28 29 28 22 14 17 24 7 3 10 17 20 20 20 16 18 15 15 10 10 15 17 15 18 23 20 23 22 21
17 9 10 4 2 5 2 3 4 8 8 11 10 7 4 5 7 14 20 30 22 22 19 17 20 20 26 29 26 24 19 20 25 16 21 29 30 20 18 15 16 14 9 4 11 20 16 19 21 22 26 29 25 24
17 14 12 8 2 4 6 7 6 7 6 3 4 5 5 3 11 12 20 21 28 27 28 27 26 22 21 25 31 32 30 25 32 28 26 28 21 24 19 19 15 12 9 11 20 21 18 19 23 26 28 27 26 25
19 16 5 5 4 5 4 2 7 10 16 15 13 15 12 8 14 18 24 29 31 32 34 33 29 27 29 28 28 30 29 33 37 36 39 33 29 21 26 22 16 14 14 13 18 20 18 23 27 27 26 25 25 24
10 9 5 6 3 4 4 4 4 7 9 18 18 19 13 8 12 14 15 19 17 17 19 22 27 31 30 31 32 28 31 25 18 17 12 12 11 14 22 23 13 11 11 12 15 18 22 23 22 23 23 23 23 22
9 9 10 7 7 13 8 5 4 5 6 6 8 11 12 9 5 4 9 13 18 21 21 20 20 23 24 22 23 29 30 25 21 16 12 12 13 11 20 16 11 9 9 10 12 15 18 17 18 19 21 21 23 21
11 16 14 13 12 12 11 4 5 5 8 8 5 8 7 5 5 2 4 10 10 14 15 14 13 15 19 18 19 22 29 28 20 20 17 10 5 2 0 10 12 11 4 5 7 10 14 12 13 15 16 18 20 20
Wind_Direction_500mb
316 316 316 317 318 319 317 315 313 310 307 305 300 294 286 278 274 270 267 263 251 253 267 264 266 271 274 274 278 281 323 246 234 222 246 261 263 238 233 202 273 212 198 213 210 227 241 237 193 203 145 149 225 292
315 316 318 319 319 319 318 317 315 312 308 303 296 290 285 279 272 267 269 263 261 259 265 268 266 265 260 264 271 273 258 277 312 332 343 8 331 299 246 244 208 207 254 171 187 207 195 236 245 215 223 256 292 293
315 316 319 320 319 319 320 319 317 315 311 305 299 292 287 281 273 264 262 268 264 266 273 267 262 266 257 253 251 256 260 262 247 259 157 199 271 149 308 256 239 205 231 210 195 224 214 217 235 187 215 247 264 291
315 316 318 319 319 318 321 321 323 318 312 309 304 297 289 281 274 266 260 260 254 255 258 272 268 263 265 253 244 242 254 261 265 256 282 245 236 210 236 276 305 273 155 297 268 218 190 220 224 239 235 238 250 265
315 316 320 319 320 321 323 324 326 322 318 316 313 302 294 282 272 266 261 257 254 243 293 284 291 274 268 260 250 240 246 250 252 239 220 229 275 287 271 275 261 257 229 205 201 243 237 218 249 278 260 279 236 248
314 317 318 319 320 324 328 329 328 323 322 325 323 314 304 287 265 249 249 261 243 244 250 253 277 277 263 253 246 235 232 238 242 225 240 237 248 284 283 268 274 261 264 276 263 264 253 218 248 230 241 248 249 223
313 318 318 318 319 324 329 333 335 329 322 325 323 324 313 284 262 215 184 151 46 266 327 308 278 263 345 267 243 237 228 224 223 234 231 238 239 210 243 254 265 269 277 283 264 273 267 251 263 268 220 224 215 196
315 318 319 320 319 325 334 334 338 335 328 325 332 334 345 250 262 269 272 269 261 280 240 259 259 278 52 126 296 225 218 206 184 180 195 208 209 214 252 251 255 257 256 257 256 258 248 250 251 246 217 203 186 206
316 317 321 320 320 324 325 329 338 345 350 347 344 320 298 286 266 277 267 259 224 226 243 235 276 294 39 36 351 274 172 182 169 209 208 207 231 224 227 234 246 250 253 255 246 238 240 234 227 219 200 183 200 212
313 316 319 319 320 323 329 326 328 336 336 328 322 299 269 261 301 303 273 221 205 219 228 248 255 268 278 139 302 346 343 249 213 213 197 223 240 244 245 255 268 265 269 258 244 235 225 200 219 219 192 189 205 221
315 315 316 315 316 320 329 335 336 336 343 347 324 288 319 323 305 259 255 242 212 243 224 251 244 255 252 229 232 227 203 249 250 184 204 219 250 241 232 233 243 244 249 264 239 230 217 224 222 219 184 185 201 160
311 310 311 310 314 316 324 328 331 337 319 305 290 298 296 273 269 265 247 228 230 264 318 257 272 246 262 181 186 230 238 238 251 153 226 246 249 242 231 229 230 229 226 234 212 194 208 215 194 200 187 178 150 142
316 310 308 307 307 314 316 327 324 325 326 315 274 270 264 242 249 244 244 209 238 308 281 268 246 247 155 162 189 251 233 239 311 231 236 253 264 286 251 240 203 191 196 194 177 178 187 179 182 192 150 141 131 125
314 313 308 303 303 307 314 326 321 328 325 269 260 274 250 206 228 236 245 267 263 235 263 266 256 232 187 186 215 239 243 231 246 234 243 324 335 304 126 137 137 171 180 163 166 166 159 156 133 141 143 135 131 144
309 313 315 305 307 318 326 319 319 315 273 266 265 258 251 275 277 294 283 286 303 290 308 288 247 227 196 229 186 246 243 243 241 312 329 339 287 288 36 69 102 144 145 140 156 160 150 140 136 127 126 130 137 159
316 324 309 321 325 325 320 317 315 306 255 255 238 262 289 309 320 333 339 327 328 319 286 248 275 261 233 240 205 229 241 277 289 252 268 267 201 169 96 88 110 131 136 146 133 132 124 123 125 127 129 126 133 148
318 307 307 310 310 319 309 304 303 228 242 238 244 248 262 277 279 304 306 301 316 318 304 296 293 280 295 243 252 6 337 332 321 332 33 54 86 87 98 101 109 123 130 130 124 120 122 129 132 127 122 126 127 129
305 306 303 300 302 315 290 272 248 246 246 245 255 261 261 251 271 283 274 295 314 301 308 350 317 276 297 20 331 314 293 344 347 1 42 78 93 99 100 96 109 116 117 120 125 126 126 125 130 135 140 137 129 120
306 306 308 281 283 282 269 233 224 259 246 256 260 271 263 273 273 257 270 267 261 284 298 286 260 310 46 264 335 326 353 6 351 1 59 91 92 93 100 105 109 113 117 123 126 127 139 147 149 151 153 158 144 131
306 311 302 316 255 257 261 250 220 263 277 295 290 295 300 353 358 341 22 319 293 270 247 255 4 340 325 321 323 321 330 341 349 360 35 94 98 107 111 113 115 120 123 128 130 135 133 132 137 151 157 140 142 137
307 309 310 310 272 231 262 274 241 249 277 293 296 323 329 1 10 353 355 335 323 33 351 335 323 313 310 303 298 300 305 323 10 341 326 134 121 125 123 124 126 130 134 134 120 120 127 129 132 127 124 113 118 108
274 279 299 285 247 243 253 238 253 296 283 274 295 321 306 41 349 15 4 18 28 350 324 319 323 326 326 329 318 263 290 340 335 21 61 70 125 126 128 132 136 136 123 127 130 133 126 131 134 134 119 123 122 111
268 288 261 231 244 243 262 245 246 253 253 310 335 11 35 34 20 9 66 10 324 341 343 341 353 353 9 54 68 33 34 7 42 70 69 77 78 101 115 109 144 140 133 118 128 134 137 138 137 127 130 131 115 125
277 245 237 236 212 264 268 233 247 266 301 309 303 23 28 23 22 31 51 358 346 11 16 21 28 30 39 56 34 20 25 53 75 86 86 83 88 85 99 100 107 119 128 126 136 142 140 133 131 123 129 126 132 131
251 238 214 242 235 233 244 245 276 298 311 336 336 68 67 234 177 79 43 349 356 11 20 26 30 27 24 16 37 23 30 28 70 95 77 93 101 100 106 112 122 145 154 150 139 140 135 133 146 134 138 140 132 128
240 223 201 252 242 245 278 298 344 342 350 341 287 340 330 359 43 46 31 345 349 358 9 17 12 11 13 10 360 357 26 21 106 102 108 97 100 115 118 113 121 120 124 147 137 145 142 136 142 141 140 124 127 130
247 257 247 247 222 268 330 320 322 322 279 341 3 4 25 38 46 57 347 346 350 0 12 17 19 14 11 7 1 356 351 355 71 91 52 102 92 99 109 119 122 110 138 137 154 158 150 162 148 148 136 141 137 132
246 243 229 189 185 251 225 255 299 6 15 4 352 42 55 38 5 332 328 345 9 17 20 34 23 23 23 16 16 18 8 2 28 114 86 89 109 83 76 82 95 109 109 116 181 183 139 140 142 145 144 142 141 140
246 245 271 348 254 117 42 27 46 25 334 320 359 67 86 42 349 359 24 42 43 37 43 43 42 43 49 37 29 44 39 40 77 120 108 75 73 54 68 78 80 87 70 133 116 124 130 139 141 142 142 142 143 142
229 226 164 224 44 48 45 74 83 69 62 83 104 109 102 87 59 57 48 41 35 34 35 39 43 43 40 40 47 42 58 65 79 82 76 48 27 46 61 59 66 80 102 113 126 143 142 140 137 137 140 144 147 149
180 176 115 83 119 171 171 145 129 100 95 108 119 122 136 132 65 52 54 54 35 25 20 21 24 35 35 39 38 43 48 61 70 56 46 61 46 72 63 42 58 80 103 119 126 130 136 134 141 145 148 150 155 155
173 184 146 132 180 192 191 232 212 156 117 167 151 131 158 163 104 72 36 55 42 34 27 24 22 26 27 24 14 21 26 29 37 37 31 41 59 89 79 33 60 74 96 118 133 146 146 147 151 155 156 159 160 158
159 147 133 137 154 183 192 186 200 165 162 174 129 120 108 50 78 168 59 53 35 10 10 13 19 18 25 23 22 18 8 6 14 20 22 19 11 0 347 143 125 97 105 121 148 162 166 166 167 171 173 175 174 173
Wind_Speed_850mb
46 49 54 58 63 65 65 67 70 72 72 71 68 66 66 63 57 57 70 53 65 54 91 70 72 74 62 50 28 48 23 21 14 9 7 7 10 21 21 20 14 29 28 23 27 28 37 15 14 17 2 11 6 11
49 54 58 62 63 67 67 70 70 73 75 73 70 70 70 68 65 62 78 65 60 69 62 56 55 56 60 70 70 62 41 46 7 3 2 5 8 14 27 29 20 14 15 14 26 14 12 13 21 36 16 8 13 15
52 57 59 59 65 65 67 70 76 78 76 74 71 70 69 69 68 62 74 69 59 55 60 75 69 80 71 78 69 58 59 52 50 36 6 2 10 3 9 22 27 16 24 15 19 24 22 36 31 21 17 27 25 25
54 57 58 60 66 63 69 73 79 76 70 72 72 70 67 65 62 59 63 63 58 26 12 57 58 68 58 61 69 82 83 70 64 34 12 7 9 19 9 12 6 21 6 9 16 16 23 20 32 20 33 36 32 25
55 55 56 62 61 63 70 72 77 68 67 68 65 58 55 50 50 47 51 58 54 51 10 31 61 64 47 42 44 54 61 66 60 35 11 7 10 12 19 21 22 25 24 17 9 28 22 22 31 21 13 17 26 16
53 52 55 59 57 62 65 68 72 63 60 57 51 41 34 28 28 27 19 20 50 55 18 8 29 45 48 57 60 57 45 49 46 34 14 16 22 16 9 20 27 37 43 29 21 36 27 18 15 17 15 15 17 14
47 51 55 56 55 58 60 65 67 55 52 52 44 34 27 21 27 27 3 11 1 7 12 11 15 27 23 39 57 49 53 40 30 22 12 12 17 21 10 33 39 57 60 43 41 42 43 36 28 27 22 17 16 13
43 50 55 54 49 47 54 58 60 52 50 34 33 23 18 3 7 24 28 31 32 16 9 7 12 28 5 6 13 43 42 20 17 13 9 9 11 17 14 26 47 57 64 60 59 41 47 41 31 38 24 26 18 21
43 49 52 49 42 43 48 52 54 46 45 34 20 15 15 7 8 11 15 18 22 24 8 11 15 20 9 18 23 11 12 7 16 9 9 13 12 22 19 31 39 36 40 45 47 54 32 34 35 30 29 27 25 24
43 47 49 45 39 38 44 46 45 45 41 35 22 9 8 7 18 22 9 9 18 16 18 15 39 26 30 4 7 6 8 6 8 15 20 13 28 54 61 59 53 41 36 35 42 44 47 32 32 28 41 31 27 24
41 44 45 40 35 36 40 44 44 42 30 27 15 9 23 29 13 7 6 7 12 8 17 26 39 25 33 13 9 9 4 5 8 12 15 13 21 32 66 77 97 83 66 51 37 33 47 38 46 37 32 28 27 18
43 41 40 35 34 35 38 41 42 32 29 32 32 41 19 7 6 7 8 8 11 8 16 11 17 15 11 10 7 8 6 6 12 14 8 9 23 50 50 61 76 67 62 50 30 20 25 33 40 39 40 33 26 24
40 38 36 35 36 39 38 40 38 37 39 21 7 7 8 7 8 9 8 8 8 5 11 11 7 4 7 6 5 5 9 12 15 6 8 15 21 7 5 11 8 49 55 46 27 20 24 27 37 36 43 38 31 24
40 38 37 39 40 38 37 45 36 34 17 6 6 9 9 10 10 12 6 12 20 15 21 15 11 6 8 7 5 7 8 7 8 8 12 1 18 19 8 9 9 37 52 48 28 25 29 31 45 47 45 35 32 25
38 42 41 31 23 30 45 34 29 19 9 7 8 9 9 13 33 28 28 16 24 26 15 11 12 9 7 8 10 10 8 9 9 8 10 16 30 10 11 17 18 29 52 51 28 31 28 58 53 47 38 32 28 18
40 41 19 21 35 42 40 32 21 14 7 7 11 16 34 28 28 31 28 27 20 28 23 16 6 6 10 6 6 8 6 4 8 7 33 29 34 23 31 22 29 46 54 48 28 49 57 58 50 45 37 31 25 15
33 21 34 44 46 42 32 27 15 7 8 8 15 23 31 34 29 23 24 22 20 13 5 3 3 4 10 7 4 7 9 13 21 39 26 23 33 37 39 41 46 43 50 51 53 52 51 49 44 38 36 31 24 13
31 30 41 42 45 24 24 10 7 9 13 23 17 31 26 30 34 30 18 15 6 9 10 6 11 7 6 7 10 6 18 41 49 38 19 28 37 38 45 53 61 63 59 55 47 40 38 38 33 35 35 29 25 18
32 37 29 23 16 9 7 8 10 10 21 28 35 38 32 24 32 30 23 15 12 13 13 8 9 4 4 2 14 35 39 42 45 48 19 39 45 43 46 47 48 48 46 44 38 33 30 33 34 31 32 24 16 11
27 24 14 18 9 7 8 9 11 12 14 16 33 31 25 25 18 15 13 10 11 6 6 5 7 15 21 33 32 34 34 31 36 41 28 34 36 40 43 43 42 43 39 35 32 32 38 30 29 34 26 21 11 11
24 14 19 13 10 14 10 10 12 18 24 29 33 29 20 18 18 14 17 21 6 6 8 19 37 41 36 37 32 27 20 17 8 21 17 21 31 40 40 37 38 37 36 31 32 33 30 31 24 24 25 18 13 16
15 18 19 15 8 8 13 18 16 24 19 29 36 22 6 5 10 19 14 16 10 9 22 35 43 46 43 31 13 7 8 7 3 7 20 16 24 32 28 32 32 27 26 31 25 27 27 26 26 20 15 16 16 12
17 16 11 10 9 9 16 14 10 10 7 11 23 6 6 4 6 12 7 13 8 27 36 39 38 16 12 8 7 4 4 7 14 18 14 14 19 22 29 20 15 26 28 28 25 24 25 24 22 15 18 17 12 15
14 8 8 8 14 10 10 9 17 11 10 7 7 5 5 8 6 6 4 10 32 39 43 48 51 43 27 28 21 21 24 18 14 17 15 18 17 12 17 19 16 17 21 21 24 26 26 21 14 17 15 13 16 18
8 10 10 13 13 10 9 8 13 5 6 9 7 1 3 2 2 3 4 20 46 47 47 46 45 39 35 31 31 26 30 28 17 19 18 18 22 22 24 19 16 13 13 22 26 22 19 17 20 17 13 14 18 22
10 12 12 7 4 5 5 7 7 10 8 5 4 8 4 3 7 7 5 26 34 42 39 43 41 37 29 23 19 22 35 29 12 18 22 22 25 25 22 24 22 18 16 20 23 18 13 18 17 14 17 17 22 25
9 9 8 10 4 1 5 6 9 5 4 6 7 9 7 6 7 6 22 30 38 32 25 27 28 28 29 28 22 14 17 24 7 3 10 17 20 20 20 16 18 15 15 10 10 15 17 15 18 23 20 23 22 21
17 9 10 4 2 5 2 3 4 8 8 11 10 7 4 5 7 14 20 30 22 22 19 17 20 20 26 29 26 24 19 20 25 16 21 29 30 20 18 15 16 14 9 4 11 20 16 19 21 22 26 29 25 24
17 14 12 8 2 4 6 7 6 7 6 3 4 5 5 3 11 12 20 21 28 27 28 27 26 22 21 25 31 32 30 25 32 28 26 28 21 24 19 19 15 12 9 11 20 21 18 19 23 26 28 27 26 25
19 16 5 5 4 5 4 2 7 10 16 15 13 15 12 8 14 18 24 29 31 32 34 33 29 27 29 28 28 30 29 33 37 36 39 33 29 21 26 22 16 14 14 13 18 20 18 23 27 27 26 25 25 24
10 9 5 6 3 4 4 4 4 7 9 18 18 19 13 8 12 14 15 19 17 17 19 22 27 31 30 31 32 28 31 25 18 17 12 12 11 14 22 23 13 11 11 12 15 18 22 23 22 23 23 23 23 22
9 9 10 7 7 13 8 5 4 5 6 6 8 11 12 9 5 4 9 13 18 21 21 20 20 23 24 22 23 29 30 25 21 16 12 12 13 11 20 16 11 9 9 10 12 15 18 17 18 19 21 21 23 21
11 16 14 13 12 12 11 4 5 5 8 8 5 8 7 5 5 2 4 10 10 14 15 14 13 15 19 18 19 22 29 28 20 20 17 10 5 2 0 10 12 11 4 5 7 10 14 12 13 15 16 18 20 20
Wind_Direction_850mb
316 316 316 317 318 319 317 315 313 310 307 305 300 294 286 278 274 270 267 263 251 253 267 264 266 271 274 274 278 281 323 246 234 222 246 261 263 238 233 202 273 212 198 213 210 227 241 237 193 203 145 149 225 292
315 316 318 319 319 319 318 317 315 312 308 303 296 290 285 279 272 267 269 263 261 259 265 268 266 265 260 264 271 273 258 277 312 332 343 8 331 299 246 244 208 207 254 171 187 207 195 236 245 215 223 256 292 293
315 316 319 320 319 319 320 319 317 315 311 305 299 292 287 281 273 264 262 268 264 266 273 267 262 266 257 253 251 256 260 262 247 259 157 199 271 149 308 256 239 205 231 210 195 224 214 217 235 187 215 247 264 291
315 316 318 319 319 318 321 321 323 318 312 309 304 297 289 281 274 266 260 260 254 255 258 272 268 263 265 253 244 242 254 261 265 256 282 245 236 210 236 276 305 273 155 297 268 218 190 220 224 239 235 238 250 265
315 316 320 319 320 321 323 324 326 322 318 316 313 302 294 282 272 266 261 257 254 243 293 284 291 274 268 260 250 240 246 250 252 239 220 229 275 287 271 275 261 257 229 205 201 243 237 218 249 278 260 279 236 248
314 317 318 319 320 324 328 329 328 323 322 325 323 314 304 287 265 249 249 261 243 244 250 253 277 277 263 253 246 235 232 238 242 225 240 237 248 284 283 268 274 261 264 276 263 264 253 218 248 230 241 248 249 223
313 318 318 318 319 324 329 333 335 329 322 325 323 324 313 284 262 215 184 151 46 266 327 308 278 263 345 267 243 237 228 224 223 234 231 238 239 210 243 254 265 269 277 283 264 273 267 251 263 268 220 224 215 196
315 318 319 320 319 325 334 334 338 335 328 325 332 334 345 250 262 269 272 269 261 280 240 259 259 278 52 126 296 225 218 206 184 180 195 208 209 214 252 251 255 257 256 257 256 258 248 250 251 246 217 203 186 206
316 317 321 320 320 324 325 329 338 345 350 347 344 320 298 286 266 277 267 259 224 226 243 235 276 294 39 36 351 274 172 182 169 209 208 207 231 224 227 234 246 250 253 255 246 238 240 234 227 219 200 183 200 212
313 316 319 319 320 323 329 326 328 336 336 328 322 299 269 261 301 303 273 221 205 219 228 248 255 268 278 139 302 346 343 249 213 213 197 223 240 244 245 255 268 265 269 258 244 235 225 200 219 219 192 189 205 221
315 315 316 315 316 320 329 335 336 336 343 347 324 288 319 323 305 259 255 242 212 243 224 251 244 255 252 229 232 227 203 249 250 184 204 219 250 241 232 233 243 244 249 264 239 230 217 224 222 219 184 185 201 160
311 310 311 310 314 316 324 328 331 337 319 305 290 298 296 273 269 265 247 228 230 264 318 257 272 246 262 181 186 230 238 238 251 153 226 246 249 242 231 229 230 229 226 234 212 194 208 215 194 200 187 178 150 142
316 310 308 307 307 314 316 327 324 325 326 315 274 270 264 242 249 244 244 209 238 308 281 268 246 247 155 162 189 251 233 239 311 231 236 253 264 286 251 240 203 191 196 194 177 178 187 179 182 192 150 141 131 125
314 313 308 303 303 307 314 326 321 328 325 269 260 274 250 206 228 236 245 267 263 235 263 266 256 232 187 186 215 239 243 231 246 234 243 324 335 304 126 137 137 171 180 163 166 166 159 156 133 141 143 135 131 144
309 313 315 305 307 318 326 319 319 315 273 266 265 258 251 275 277 294 283 286 303 290 308 288 247 227 196 229 186 246 243 243 241 312 329 339 287 288 36 69 102 144 145 140 156 160 150 140 136 127 126 130 137 159
316 324 309 321 325 325 320 317 315 306 255 255 238 262 289 309 320 333 339 327 328 319 286 248 275 261 233 240 205 229 241 277 289 252 268 267 201 169 96 88 110 131 136 146 133 132 124 123 125 127 129 126 133 148
318 307 307 310 310 319 309 304 303 228 242 238 244 248 262 277 279 304 306 301 316 318 304 296 293 280 295 243 252 6 337 332 321 332 33 54 86 87 98 101 109 123 130 130 124 120 122 129 132 127 122 126 127 129
305 306 303 300 302 315 290 272 248 246 246 245 255 261 261 251 271 283 274 295 314 301 308 350 317 276 297 20 331 314 293 344 347 1 42 78 93 99 100 96 109 116 117 120 125 126 126 125 130 135 140 137 129 120
306 306 308 281 283 282 269 233 224 259 246 256 260 271 263 273 273 257 270 267 261 284 298 286 260 310 46 264 335 326 353 6 351 1 59 91 92 93 100 105 109 113 117 123 126 127 139 147 149 151 153 158 144 131
306 311 302 316 255 257 261 250 220 263 277 295 290 295 300 353 358 341 22 319 293 270 247 255 4 340 325 321 323 321 330 341 349 360 35 94 98 107 111 113 115 120 123 128 130 135 133 132 137 151 157 140 142 137
307 309 310 310 272 231 262 274 241 249 277 293 296 323 329 1 10 353 355 335 323 33 351 335 323 313 310 303 298 300 305 323 10 341 326 134 121 125 123 124 126 130 134 134 120 120 127 129 132 127 124 113 118 108
274 279 299 285 247 243 253 238 253 296 283 274 295 321 306 41 349 15 4 18 28 350 324 319 323 326 326 329 318 263 290 340 335 21 61 70 125 126 128 132 136 136 123 127 130 133 126 131 134 134 119 123 122 111
268 288 261 231 244 243 262 245 246 253 253 310 335 11 35 34 20 9 66 10 324 341 343 341 353 353 9 54 68 33 34 7 42 70 69 77 78 101 115 109 144 140 133 118 128 134 137 138 137 127 130 131 115 125
277 245 237 236 212 264 268 233 247 266 301 309 303 23 28 23 22 31 51 358 346 11 16 21 28 30 39 56 34 20 25 53 75 86 86 83 88 85 99 100 107 119 128 126 136 142 140 133 131 123 129 126 132 131
251 238 214 242 235 233 244 245 276 298 311 336 336 68 67 234 177 79 43 349 356 11 20 26 30 27 24 16 37 23 30 28 70 95 77 93 101 100 106 112 122 145 154 150 139 140 135 133 146 134 138 140 132 128
240 223 201 252 242 245 278 298 344 342 350 341 287 340 330 359 43 46 31 345 349 358 9 17 12 11 13 10 360 357 26 21 106 102 108 97 100 115 118 113 121 120 124 147 137 145 142 136 142 141 140 124 127 130
247 257 247 247 222 268 330 320 322 322 279 341 3 4 25 38 46 57 347 346 350 0 12 17 19 14 11 7 1 356 351 355 71 91 52 102 92 99 109 119 122 110 138 137 154 158 150 162 148 148 136 141 137 132
246 243 229 189 185 251 225 255 299 6 15 4 352 42 55 38 5 332 328 345 9 17 20 34 23 23 23 16 16 18 8 2 28 114 86 89 109 83 76 82 95 109 109 116 181 183 139 140 142 145 144 142 141 140
246 245 271 348 254 117 42 27 46 25 334 320 359 67 86 42 349 359 24 42 43 37 43 43 42 43 49 37 29 44 39 40 77 120 108 75 73 54 68 78 80 87 70 133 116 124 130 139 141 142 142 142 143 142
229 226 164 224 44 48 45 74 83 69 62 83 104 109 102 87 59 57 48 41 35 34 35 39 43 43 40 40 47 42 58 65 79 82 76 48 27 46 61 59 66 80 102 113 126 143 142 140 137 137 140 144 147 149
180 176 115 83 119 171 171 145 129 100 95 108 119 122 136 132 65 52 54 54 35 25 20 21 24 35 35 39 38 43 48 61 70 56 46 61 46 72 63 42 58 80 103 119 126 130 136 134 141 145 148 150 155 155
173 184 146 132 180 192 191 232 212 156 117 167 151 131 158 163 104 72 36 55 42 34 27 24 22 26 27 24 14 21 26 29 37 37 31 41 59 89 79 33 60 74 96 118 133 146 146 147 151 155 156 159 160 158
159 147 133 137 154 183 192 186 200 165 162 174 129 120 108 50 78 168 59 53 35 10 10 13 19 18 25 23 22 18 8 6 14 20 22 19 11 0 347 143 125 97 105 121 148 162 166 166 167 171 173 175 174 173